{"data":{"norad_id":62445,"intl_designator":"2024-251P","name":"STARLINK-32683","alt_names":[],"object_type":"PAYLOAD","status":"ACTIVE","operator":null,"country":"US","launch_date":"2024-12-29","launch_site_code":"AFWTR","launch_vehicle":null,"mission":null,"orbit_class":"UNKNOWN","rcs_meters":null,"size_class":null,"mass_kg":null,"dimensions":null,"purposes":["comms"],"wikipedia_slug":null,"has_3d_model":false,"image_url":null,"decayed_at":null,"tle_current":{"epoch":"2026-09-21T20:19:59.984256Z","epoch_age_seconds":58131,"freshness":"FRESH","line1":"1 62445U 24251P   26264.84722204  .00024037  00000+0  72006-3 0  9997","line2":"2 62445  53.1589 141.1480 0001175  84.5878 275.5259 15.34408669 98027","mean_motion":15.34408669,"eccentricity":0.0001175,"inclination_deg":53.1589,"raan_deg":141.148,"arg_perigee_deg":84.5878,"mean_anomaly_deg":275.5259,"bstar":0.00072006,"rev_number":9802,"period_min":93.847227866516,"perigee_km":461.87367853278,"apogee_km":463.48126993423,"semimajor_km":6840.8144742335,"source":"CELESTRAK","updated_at":"2026-09-22T09:00:49.582592Z"}}}